Overview Statistics Trail Chart Weather Telemetry Raw packets
 

This is the latest recevied weather packets stored in our database for station/object KI5NXU. If no packets are shown the sender has not sent any weather packets the latest 10 day(s).

<< 99 100 101 102 103 104 105 >>
Time Temp. Humidity Pressure Rain* Wind** Luminosity Snow
1787647854 30.56° C 41% 1013.2 hPa 0 mm - 0 W/m² -
1787647550 30.56° C 41% 1012.9 hPa 0 mm - 0 W/m² -
1787647248 31.11° C 40% 1013.3 hPa 0 mm - 0 W/m² -
1787646943 30.56° C 40% 1013.4 hPa 0 mm - 0 W/m² -
1787646639 30.56° C 39% 1013 hPa 0 mm - 0 W/m² -
1787646333 30.56° C 39% 1013.3 hPa 0 mm - 0 W/m² -
1787646028 30.56° C 39% 1013.2 hPa 0 mm - 0 W/m² -
1787645724 30.56° C 40% 1013.3 hPa 0 mm - 0 W/m² -
1787645420 31.11° C 39% 1013.3 hPa 0 mm - 0 W/m² -
1787645115 31.11° C 39% 1012.9 hPa 0 mm - 0 W/m² -
1787644811 31.11° C 39% 1012.9 hPa 0 mm - 0 W/m² -
1787644504 31.11° C 38% 1013.2 hPa 0 mm - 0 W/m² -
1787644201 31.67° C 38% 1013 hPa 0 mm - 0 W/m² -
1787643900 31.67° C 38% 1013.3 hPa 0 mm - 0 W/m² -
1787643595 31.67° C 38% 1013 hPa 0 mm - 0 W/m² -
1787643291 31.67° C 38% 1012.9 hPa 0 mm - 0 W/m² -
1787642987 31.67° C 37% 1013.3 hPa 0 mm - 0 W/m² -
1787642682 31.67° C 37% 1013.2 hPa 0 mm - 0 W/m² -
1787642382 32.22° C 37% 1012.9 hPa 0 mm - 0 W/m² -
1787642080 31.67° C 37% 1013.2 hPa 0 mm - 0 W/m² -
1787641779 32.22° C 37% 1012.8 hPa 0 mm - 0 W/m² -
1787641479 32.22° C 36% 1013 hPa 0 mm - 0 W/m² -
1787641177 32.78° C 36% 1012.9 hPa 0 mm - 0 W/m² -
1787640873 32.78° C 35% 1013 hPa 0 mm - 0 W/m² -
1787640568 32.78° C 35% 1012.7 hPa 0 mm - 0 W/m² -

* Rain latest hour (hover to see other rain measurements)
** Current wind speed in m/s (hover to see current wind gust speed)